KC9MVM Weather Reports


Display with metric or nautical units.
time (UTC)temp
F
wind
direction
speed
MPH
gust
MPH
rain 1hr
in
rain 24hr
in
rain mn
in
humidity
%
barometer
mb
20260906090507 71 65 0.0 0.0 0.00 0.17 0.00 86 1015.3
20260906090018 71 77 0.0 0.0 0.00 0.17 0.00 86 1015.3
20260906085509 71 71 0.0 1.0 0.00 0.17 0.00 87 1015.2
20260906085007 71 117 0.0 1.0 0.00 0.17 0.00 87 1015.1
20260906084515 71 49 0.0 0.0 0.00 0.17 0.00 88 1015.0
20260906084008 71 50 0.0 0.0 0.00 0.17 0.00 88 1015.0
20260906083512 71 50 0.0 0.0 0.00 0.17 0.00 88 1015.0
20260906083027 71 32 0.0 0.0 0.00 0.17 0.00 88 1014.9
20260906082510 70 34 0.0 0.0 0.00 0.17 0.00 89 1014.9
20260906082012 70 29 0.0 0.0 0.00 0.17 0.00 89 1015.0
20260906081544 70 27 0.0 0.0 0.00 0.17 0.00 89 1015.0
20260906081006 70 17 0.0 0.0 0.00 0.17 0.00 89 1014.8
20260906080512 70 17 0.0 0.0 0.00 0.17 0.00 89 1014.9
20260906080032 70 17 0.0 0.0 0.00 0.17 0.00 89 1014.9
20260906075508 70 16 0.0 0.0 0.00 0.17 0.00 89 1014.9
20260906075008 70 16 0.0 0.0 0.00 0.17 0.00 89 1014.9
20260906074519 70 16 0.0 0.0 0.00 0.17 0.00 89 1014.8
20260906074007 70 16 0.0 0.0 0.00 0.17 0.00 89 1014.9
20260906073507 70 16 0.0 0.0 0.00 0.17 0.00 89 1014.9
20260906073043 70 16 0.0 0.0 0.00 0.17 0.00 89 1014.9
20260906072510 70 16 0.0 0.0 0.00 0.17 0.00 89 1014.9
20260906072015 70 15 0.0 0.0 0.00 0.17 0.00 89 1014.9
20260906071518 70 15 0.0 0.0 0.00 0.17 0.00 89 1014.9
20260906071012 70 15 0.0 0.0 0.00 0.17 0.00 89 1014.9
20260906070518 70 15 0.0 0.0 0.00 0.17 0.00 89 1014.9
20260906070016 70 15 0.0 0.0 0.00 0.17 0.00 89 1014.9
20260906065512 70 15 0.0 0.0 0.00 0.17 0.00 88 1014.9
20260906065013 70 15 0.0 0.0 0.00 0.17 0.00 88 1014.9
20260906064518 70 15 0.0 0.0 0.00 0.17 0.00 88 1015.0
20260906064010 71 15 0.0 0.0 0.00 0.17 0.00 88 1015.0
20260906063512 71 15 0.0 0.0 0.00 0.17 0.00 88 1015.0
20260906063024 71 15 0.0 0.0 0.00 0.17 0.00 88 1015.0
20260906062506 71 15 0.0 0.0 0.00 0.17 0.00 88 1015.0
20260906062013 71 15 0.0 0.0 0.00 0.17 0.00 88 1015.0
20260906061530 71 15 0.0 0.0 0.00 0.17 0.00 88 1015.0
20260906061014 71 15 0.0 0.0 0.00 0.17 0.00 88 1015.0
20260906060511 71 15 0.0 0.0 0.00 0.17 0.00 88 1014.9
20260906060028 71 15 0.0 0.0 0.00 0.17 0.00 87 1014.7
20260906055513 71 15 0.0 0.0 0.00 0.17 0.00 87 1014.7
20260906055018 71 15 0.0 0.0 0.00 0.17 0.00 87 1014.7
20260906054526 71 15 0.0 0.0 0.00 0.17 0.00 87 1014.8
20260906054014 71 15 0.0 0.0 0.00 0.17 0.00 86 1014.7
20260906053509 72 15 0.0 0.0 0.00 0.17 0.00 87 1014.7
20260906053021 71 15 0.0 0.0 0.00 0.17 0.00 87 1014.8
20260906052511 71 15 0.0 0.0 0.00 0.17 0.00 86 1014.9
20260906052013 72 15 0.0 0.0 0.00 0.17 0.00 86 1014.8
20260906051526 72 15 0.0 0.0 0.00 0.17 0.00 86 1014.7
20260906051015 72 15 0.0 0.0 0.00 0.17 0.00 86 1014.8
20260906050514 72 15 0.0 0.0 0.00 0.17 0.00 86 1014.7
20260906050033 72 15 0.0 0.0 0.00 0.17 0.00 86 1014.7
20260906045508 72 15 0.0 0.0 0.00 0.17 0.00 85 1014.7
20260906045016 72 15 0.0 0.0 0.00 0.17 0.00 85 1014.6
20260906044531 72 15 0.0 0.0 0.00 0.17 0.00 85 1014.7
20260906044016 72 15 0.0 0.0 0.00 0.17 0.00 85 1014.6
20260906043510 72 15 0.0 0.0 0.00 0.17 0.00 85 1014.6
20260906043039 72 15 0.0 0.0 0.00 0.17 0.00 85 1014.5
20260906042508 72 15 0.0 0.0 0.00 0.17 0.00 85 1014.4
20260906042010 72 15 0.0 0.0 0.00 0.17 0.00 85 1014.4
20260906041524 72 15 0.0 0.0 0.00 0.17 0.00 85 1014.4
20260906041013 72 16 0.0 0.0 0.00 0.17 0.00 85 1014.4
20260906040514 72 16 0.0 3.0 0.00 0.17 0.00 84 1014.4
20260906040027 72 16 0.0 6.0 0.00 0.17 0.00 84 1014.3
20260906035516 73 16 0.0 6.0 0.00 0.17 0.17 84 1014.4
20260906035016 73 348 0.0 6.0 0.00 0.17 0.17 83 1014.5
20260906034526 73 17 0.0 8.0 0.00 0.17 0.17 83 1014.5
20260906034013 73 352 0.0 10.0 0.00 0.17 0.17 82 1014.4
20260906033514 73 301 0.0 10.0 0.00 0.17 0.17 82 1014.4
20260906033030 74 336 1.0 8.0 0.00 0.17 0.17 82 1014.4
20260906032511 74 33 0.0 6.0 0.00 0.17 0.17 82 1014.3
20260906032016 74 36 0.0 10.0 0.00 0.17 0.17 82 1014.3
20260906031520 74 338 1.0 10.0 0.00 0.17 0.17 82 1014.3
20260906031014 74 19 0.0 10.0 0.00 0.17 0.17 82 1014.3
20260906030512 74 78 1.0 10.0 0.00 0.17 0.17 82 1014.3
20260906030025 74 330 1.0 5.0 0.00 0.17 0.17 82 1014.3
20260906025514 75 334 0.0 4.0 0.00 0.17 0.17 81 1014.2
20260906025011 75 331 1.0 8.0 0.00 0.17 0.17 81 1014.2
20260906024528 75 333 0.0 8.0 0.00 0.17 0.17 81 1014.2
20260906024006 75 337 0.0 4.0 0.00 0.17 0.17 81 1014.2
20260906023510 76 24 0.0 4.0 0.00 0.17 0.17 80 1014.0
20260906023012 76 84 0.0 1.0 0.00 0.17 0.17 80 1014.0
20260906022504 76 360 0.0 1.0 0.00 0.17 0.17 80 1014.0
20260906022009 76 350 0.0 1.0 0.00 0.17 0.17 80 1013.9
20260906021518 77 352 0.0 1.0 0.00 0.17 0.17 79 1013.8
20260906021010 77 350 0.0 8.0 0.00 0.17 0.17 78 1013.6
20260906020504 77 350 1.0 8.0 0.00 0.17 0.17 78 1013.5
20260906020021 78 360 0.0 8.0 0.00 0.17 0.17 78 1013.4
20260906015513 78 333 0.0 5.0 0.00 0.17 0.17 79 1013.4
20260906015014 78 342 0.0 6.0 0.00 0.17 0.17 78 1013.3
20260906014525 78 340 0.0 6.0 0.00 0.17 0.17 78 1013.3
20260906014009 78 352 0.0 0.0 0.00 0.17 0.17 78 1013.3
20260906013514 78 5 0.0 0.0 0.00 0.17 0.17 79 1013.3
20260906013013 78 5 0.0 0.0 0.00 0.17 0.17 80 1013.3
20260906012510 78 5 0.0 0.0 0.00 0.17 0.17 79 1013.3
20260906012007 79 5 0.0 0.0 0.00 0.17 0.17 79 1013.2
20260906011514 79 5 0.0 1.0 0.00 0.17 0.17 78 1013.1
20260906011010 79 5 0.0 1.0 0.00 0.17 0.17 78 1013.1
20260906010509 79 9 0.0 1.0 0.00 0.17 0.17 79 1012.9
20260906010023 80 9 0.0 1.0 0.00 0.17 0.17 77 1012.9
20260906005510 80 10 0.0 1.0 0.00 0.17 0.17 77 1012.7
20260906005008 81 10 0.0 8.0 0.00 0.17 0.17 76 1012.7
20260906004527 81 10 0.0 8.0 0.00 0.17 0.17 75 1012.6
20260906004014 81 335 1.0 9.0 0.00 0.17 0.17 74 1012.7
20260906003506 81 321 3.0 10.0 0.00 0.17 0.17 74 1012.8
20260906003024 82 325 1.0 11.0 0.00 0.17 0.17 74 1012.7
20260906002515 82 350 2.0 11.0 0.00 0.17 0.17 73 1012.6
20260906002016 82 301 1.0 10.0 0.00 0.17 0.17 73 1012.6
20260906001520 82 22 3.0 10.0 0.00 0.17 0.17 73 1012.5
20260906001009 83 350 0.0 8.0 0.00 0.17 0.17 74 1012.4
20260906000507 84 348 0.0 10.0 0.00 0.17 0.17 73 1012.4
20260906000017 84 5 2.0 14.0 0.00 0.17 0.17 72 1012.4
20260905235508 85 318 3.0 14.0 0.00 0.17 0.17 72 1012.3
20260905235011 85 347 2.0 14.0 0.00 0.17 0.17 73 1012.3
20260905234526 86 9 0.0 11.0 0.00 0.17 0.17 72 1012.2
20260905234007 86 10 4.0 12.0 0.00 0.17 0.17 72 1012.0
20260905233514 86 334 3.0 12.0 0.00 0.17 0.17 73 1012.1
20260905233030 86 321 0.0 5.0 0.00 0.17 0.17 73 1011.9
20260905232509 86 321 1.0 5.0 0.00 0.17 0.17 72 1011.9
20260905232013 86 321 0.0 3.0 0.00 0.17 0.17 72 1011.9
20260905231529 87 321 0.0 4.0 0.00 0.17 0.17 73 1011.9
20260905231017 87 321 0.0 4.0 0.00 0.17 0.17 71 1011.9
20260905230510 87 320 0.0 6.0 0.00 0.17 0.17 72 1011.9
20260905230018 88 320 0.0 6.0 0.00 0.17 0.17 71 1011.9
20260905225510 88 319 2.0 6.0 0.00 0.17 0.17 71 1011.8
20260905225006 88 317 0.0 8.0 0.00 0.17 0.17 70 1011.8
20260905224531 87 315 3.0 8.0 0.00 0.17 0.17 71 1011.8
20260905224013 87 257 0.0 0.0 0.00 0.17 0.17 73 1011.8
20260905223517 86 253 0.0 0.0 0.00 0.17 0.17 75 1011.7
20260905223030 86 253 0.0 0.0 0.00 0.17 0.17 77 1011.8
20260905222518 85 253 0.0 0.0 0.00 0.17 0.17 78 1011.8
20260905222016 86 253 0.0 0.0 0.00 0.17 0.17 78 1011.8
20260905221528 85 253 0.0 0.0 0.00 0.17 0.17 80 1012.0
20260905221013 86 253 0.0 1.0 0.00 0.17 0.17 79 1011.8
20260905220518 86 253 0.0 1.0 0.00 0.17 0.17 80 1011.7
20260905220031 86 253 0.0 1.0 0.00 0.17 0.17 77 1011.7
20260905215512 87 253 0.0 1.0 0.00 0.17 0.17 78 1011.6
20260905215008 86 253 0.0 1.0 0.00 0.17 0.17 77 1011.7
20260905214520 87 253 0.0 4.0 0.00 0.17 0.17 75 1011.7
20260905214010 88 253 0.0 4.0 0.00 0.17 0.17 71 1011.8
20260905213512 87 250 0.0 0.0 0.00 0.17 0.17 75 1011.8
20260905213029 86 250 0.0 0.0 0.00 0.17 0.17 78 1011.9
20260905212513 86 250 0.0 0.0 0.00 0.17 0.17 80 1011.9
20260905212009 86 250 0.0 0.0 0.00 0.17 0.17 78 1011.8
20260905211526 86 250 0.0 0.0 0.00 0.17 0.17 79 1011.8
20260905211019 85 250 0.0 0.0 0.00 0.17 0.17 81 1011.9
20260905210517 85 250 0.0 0.0 0.00 0.17 0.17 79 1011.9
20260905210023 84 250 0.0 0.0 0.00 0.17 0.17 82 1011.9
20260905205516 84 250 0.0 0.0 0.00 0.17 0.17 84 1012.0
20260905205004 85 250 0.0 0.0 0.01 0.17 0.17 82 1012.1
20260905204518 84 250 0.0 0.0 0.04 0.17 0.17 82 1012.1
20260905204004 84 250 0.0 0.0 0.10 0.17 0.17 83 1012.1
20260905203504 83 250 0.0 0.0 0.17 0.17 0.17 87 1012.1
20260905203017 82 250 0.0 0.0 0.17 0.17 0.17 85 1012.2
20260905202503 81 250 0.0 0.0 0.17 0.17 0.17 84 1012.2
20260905202003 81 250 0.0 0.0 0.17 0.17 0.17 85 1012.2
20260905201507 79 250 0.0 0.0 0.17 0.17 0.17 88 1012.3
20260905201004 78 250 0.0 0.0 0.17 0.17 0.17 86 1012.3
20260905200503 75 250 0.0 0.0 0.17 0.17 0.17 86 1012.3
20260905200011 74 250 0.0 0.0 0.17 0.17 0.17 86 1012.5
20260905195507 74 250 0.0 8.0 0.17 0.17 0.17 84 1012.5
20260905195011 76 250 0.0 14.0 0.16 0.16 0.16 75 1012.8
20260905194506 80 223 3.0 15.0 0.13 0.13 0.13 69 1013.0
20260905194003 84 315 7.0 15.0 0.07 0.07 0.07 69 1013.3
20260905193508 86 96 0.0 0.0 0.00 0.00 0.00 75 1012.7
20260905193005 88 96 0.0 0.0 0.00 0.00 0.00 69 1012.7
20260905192505 88 96 0.0 1.0 0.00 0.00 0.00 69 1012.4
20260905192008 89 96 0.0 6.0 0.00 0.00 0.00 66 1012.5
20260905191503 90 96 0.0 6.0 0.00 0.00 0.00 63 1012.7
20260905191004 91 86 0.0 0.0 0.00 0.00 0.00 62 1012.8
20260905190504 91 86 0.0 0.0 0.00 0.00 0.00 60 1012.8
20260905190026 91 86 0.0 0.0 0.00 0.00 0.00 66 1012.7
20260905185504 90 111 0.0 0.0 0.00 0.00 0.00 63 1012.8
20260905185006 89 111 0.0 0.0 0.00 0.00 0.00 67 1012.9
20260905184515 90 111 0.0 0.0 0.00 0.00 0.00 61 1013.1
20260905184008 90 111 0.0 0.0 0.00 0.00 0.00 61 1013.2
20260905183503 91 111 0.0 0.0 0.00 0.00 0.00 64 1013.3
20260905183016 91 111 0.0 6.0 0.00 0.00 0.00 62 1013.3
20260905182508 91 111 0.0 6.0 0.00 0.00 0.00 61 1013.4
20260905182010 91 107 0.0 7.0 0.00 0.00 0.00 66 1013.4
20260905181512 90 107 0.0 7.0 0.00 0.00 0.00 65 1013.5
20260905181007 90 104 0.0 3.0 0.00 0.00 0.00 67 1013.5
20260905180506 90 104 0.0 3.0 0.00 0.00 0.00 69 1013.6
20260905180008 90 104 0.0 3.0 0.00 0.00 0.00 67 1013.7
20260905175504 89 104 0.0 3.0 0.00 0.00 0.00 65 1013.8
20260905175006 90 104 0.0 3.0 0.00 0.00 0.00 63 1013.8
20260905174512 89 104 0.0 1.0 0.00 0.00 0.00 66 1013.9
20260905174005 88 104 0.0 0.0 0.00 0.00 0.00 66 1013.9
20260905173507 88 104 0.0 1.0 0.00 0.00 0.00 66 1013.8
20260905173015 88 104 0.0 1.0 0.00 0.00 0.00 66 1013.8
20260905172504 88 104 0.0 7.0 0.00 0.00 0.00 65 1013.9
20260905172004 87 104 0.0 7.0 0.00 0.00 0.00 69 1013.9
20260905171518 88 96 0.0 0.0 0.00 0.00 0.00 66 1013.9
20260905171012 87 96 0.0 1.0 0.00 0.00 0.00 66 1014.0
20260905170503 86 96 0.0 7.0 0.00 0.00 0.00 66 1014.1
20260905170014 86 96 3.0 7.0 0.00 0.00 0.00 70 1014.2
20260905165503 86 98 0.0 1.0 0.00 0.00 0.00 66 1014.3
20260905165004 87 98 0.0 4.0 0.00 0.00 0.00 67 1014.3
20260905164510 87 98 1.0 4.0 0.00 0.00 0.00 70 1014.3
20260905164004 86 97 0.0 0.0 0.00 0.00 0.00 73 1014.2
20260905163507 84 97 0.0 0.0 0.00 0.00 0.00 70 1014.2
20260905163010 83 97 0.0 1.0 0.00 0.00 0.00 72 1014.2
20260905162509 83 97 0.0 4.0 0.00 0.00 0.00 70 1014.2
20260905162008 83 97 0.0 4.0 0.00 0.00 0.00 69 1014.3
20260905161507 83 97 0.0 7.0 0.00 0.00 0.00 69 1014.4
20260905161004 84 97 1.0 7.0 0.00 0.00 0.00 69 1014.2
20260905160510 84 98 0.0 7.0 0.00 0.00 0.00 70 1014.2
20260905160027 85 97 0.0 4.0 0.00 0.00 0.00 66 1014.2
20260905155506 84 97 0.0 9.0 0.00 0.00 0.00 69 1014.3
20260905155007 84 97 1.0 9.0 0.00 0.00 0.00 67 1014.5
20260905154504 83 96 2.0 9.0 0.00 0.00 0.00 70 1014.6
20260905154004 83 101 3.0 9.0 0.00 0.00 0.00 67 1014.6
20260905153505 83 101 2.0 9.0 0.00 0.00 0.00 69 1014.5
20260905153013 83 99 2.0 9.0 0.00 0.00 0.00 69 1014.4
20260905152506 83 99 4.0 9.0 0.00 0.00 0.00 69 1014.3
20260905152004 83 104 0.0 9.0 0.00 0.00 0.00 72 1014.3
20260905151516 83 104 2.0 9.0 0.00 0.00 0.00 70 1014.2
20260905151010 83 100 1.0 8.0 0.00 0.00 0.00 70 1014.3
20260905150510 83 100 0.0 8.0 0.00 0.00 0.00 71 1014.4
20260905150018 83 102 2.0 8.0 0.00 0.00 0.00 71 1014.7
20260905145509 83 101 0.0 4.0 0.00 0.00 0.00 72 1014.5
20260905145011 82 101 0.0 10.0 0.00 0.00 0.00 72 1014.5
20260905144508 82 101 3.0 10.0 0.00 0.00 0.00 71 1014.5
20260905144008 82 105 0.0 8.0 0.00 0.00 0.00 73 1014.5
20260905143504 82 105 0.0 7.0 0.00 0.00 0.00 73 1014.5
20260905143019 82 104 2.0 9.0 0.00 0.00 0.00 75 1014.5
20260905142506 81 104 0.0 9.0 0.00 0.00 0.00 75 1014.4
20260905142006 81 99 0.0 8.0 0.00 0.00 0.00 75 1014.3
20260905141520 81 99 0.0 9.0 0.00 0.00 0.00 76 1014.3
20260905141005 81 98 3.0 9.0 0.00 0.00 0.00 77 1014.5
20260905140508 81 116 3.0 8.0 0.00 0.00 0.00 77 1014.5
20260905140024 80 126 2.0 7.0 0.00 0.00 0.00 80 1014.5
20260905135513 79 126 1.0 7.0 0.00 0.00 0.00 80 1014.5
20260905135006 79 128 0.0 8.0 0.00 0.00 0.00 83 1014.5
20260905134524 78 128 3.0 8.0 0.00 0.00 0.00 83 1014.5
20260905134012 77 129 1.0 11.0 0.00 0.00 0.00 84 1014.5
20260905133505 76 129 4.0 11.0 0.00 0.00 0.00 85 1014.5
20260905133025 76 220 0.0 0.0 0.00 0.00 0.00 87 1014.4
20260905132504 77 220 0.0 0.0 0.00 0.00 0.00 85 1014.2
20260905132005 77 220 0.0 0.0 0.00 0.00 0.00 85 1014.2
20260905131527 77 220 0.0 0.0 0.00 0.00 0.00 87 1014.1
20260905131009 76 220 0.0 0.0 0.00 0.00 0.00 88 1014.1
20260905130508 75 220 0.0 0.0 0.00 0.00 0.00 89 1014.1
20260905130032 74 220 0.0 0.0 0.00 0.00 0.00 90 1014.1
20260905125508 74 220 0.0 0.0 0.00 0.00 0.00 90 1014.0
20260905125010 74 220 0.0 0.0 0.00 0.00 0.00 90 1014.0
20260905124527 74 220 0.0 0.0 0.00 0.00 0.00 90 1014.0
20260905124005 74 220 0.0 0.0 0.00 0.00 0.00 90 1013.9
20260905123510 74 220 0.0 0.0 0.00 0.00 0.00 90 1013.9
20260905123027 74 220 0.0 0.0 0.00 0.00 0.00 90 1013.9
20260905122518 74 220 0.0 0.0 0.00 0.00 0.00 90 1013.8
20260905122010 73 220 0.0 0.0 0.00 0.00 0.00 90 1013.8
20260905121513 73 220 0.0 0.0 0.00 0.00 0.00 90 1013.8
20260905121005 73 220 0.0 0.0 0.00 0.00 0.00 90 1013.8
20260905120503 73 220 0.0 0.0 0.00 0.00 0.00 90 1013.7
20260905120016 73 220 0.0 0.0 0.00 0.00 0.00 90 1013.7
20260905115508 73 220 0.0 0.0 0.00 0.00 0.00 90 1013.8
20260905115004 73 220 0.0 0.0 0.00 0.00 0.00 90 1013.8
20260905114516 73 220 0.0 0.0 0.00 0.00 0.00 90 1013.8
20260905114013 73 220 0.0 0.0 0.00 0.00 0.00 90 1013.6
20260905113504 73 220 0.0 0.0 0.00 0.00 0.00 90 1013.6
20260905113008 73 220 0.0 0.0 0.00 0.00 0.00 90 1013.6
20260905112505 73 220 0.0 0.0 0.00 0.00 0.00 90 1013.6
20260905112003 73 220 0.0 0.0 0.00 0.00 0.00 90 1013.6
20260905111508 73 220 0.0 0.0 0.00 0.00 0.00 90 1013.7
20260905111005 73 220 0.0 0.0 0.00 0.00 0.00 90 1013.6
20260905110509 73 220 0.0 0.0 0.00 0.00 0.00 90 1013.6
20260905110005 72 220 0.0 0.0 0.00 0.00 0.00 90 1013.6
20260905105506 73 220 0.0 0.0 0.00 0.00 0.00 90 1013.6
20260905105009 73 220 0.0 0.0 0.00 0.00 0.00 90 1013.6
20260905104518 73 220 0.0 0.0 0.00 0.00 0.00 90 1013.5
20260905104006 73 220 0.0 0.0 0.00 0.00 0.00 90 1013.5
20260905103509 73 220 0.0 0.0 0.00 0.00 0.00 90 1013.6
20260905103026 73 220 0.0 0.0 0.00 0.00 0.00 90 1013.6
20260905102503 73 220 0.0 0.0 0.00 0.00 0.00 90 1013.6
20260905102003 73 220 0.0 0.0 0.00 0.00 0.00 90 1013.6
20260905101509 73 220 0.0 0.0 0.00 0.00 0.00 90 1013.5
20260905101004 73 220 0.0 0.0 0.00 0.00 0.00 89 1013.5
20260905100506 73 220 0.0 0.0 0.00 0.00 0.00 89 1013.5
20260905100019 73 220 0.0 0.0 0.00 0.00 0.00 89 1013.5
20260905095506 73 220 0.0 0.0 0.00 0.00 0.00 89 1013.5
20260905095006 73 220 0.0 0.0 0.00 0.00 0.00 89 1013.5
20260905094515 73 220 0.0 0.0 0.00 0.00 0.00 89 1013.4
20260905094009 73 220 0.0 0.0 0.00 0.00 0.00 89 1013.5
20260905093509 74 220 0.0 0.0 0.00 0.00 0.00 89 1013.5
20260905093007 73 220 0.0 0.0 0.00 0.00 0.00 89 1013.5
20260905092506 73 220 0.0 0.0 0.00 0.00 0.00 89 1013.5
20260905092010 73 220 0.0 0.0 0.00 0.00 0.00 90 1013.5
20260905091507 73 220 0.0 0.0 0.00 0.00 0.00 90 1013.4
20260905091003 73 220 0.0 0.0 0.00 0.00 0.00 90 1013.3